Regional Weather Roundup
Issued by NWS

Home | Current Version | Previous Version | Graphics & Text | Print | Product List | Glossary Off
Versions: 1 2 3 4 5 6 7 8 9 10 11 12 13 14 15 16 17 18 19 20 21 22 23 24 25 26 27 28 29 30 31 32 33 34 35 36 37 38 39 40 41 42 43 44 45 46 47 48 49 50

000
ASUS43 KMKX 012220
RWRWI

WISCONSIN REGIONAL WEATHER ROUNDUP
NATIONAL WEATHER SERVICE MILWAUKEE/SULLIVAN WI
500 PM CDT WED APR 01 2015

NOTE: "FAIR" INDICATES FEW OR NO CLOUDS BELOW 12,000 FEET WITH NO
SIGNIFICANT WEATHER AND/OR OBSTRUCTIONS TO VISIBILITY.

WIZ001-002-006>008-014>016-023>028-012300-
NORTHWEST WISCONSIN

CITY           SKY/WX    TMP DP  RH WIND       PRES   REMARKS
SUPERIOR ARPT  CLOUDY    36  34  90 E14       29.54F WCI  27
ASHLAND        CLOUDY    63  37  38 VRB3      29.52F
HAYWARD        CLOUDY    61  42  49 VRB5      29.55F
SIREN          CLOUDY    68  39  34 S9        29.52S
CUMBERLAND     CLOUDY    70  34  26 S21G28    29.54F
RICE LAKE      CLOUDY    74  32  21 S18G29    29.56F
CHETEK         CLOUDY    75  37  24 S21G37    29.55F
LADYSMITH      CLOUDY    63  38  39 E10       29.61F
EAU CLAIRE     PTSUNNY   79  34  19 S17G37    29.57F
MENOMONIE      PTSUNNY   79  31  17 S21G36    29.56F
NEW RICHMOND   MOSUNNY   77  34  20 S31G37    29.52F
OSCEOLA        PTSUNNY   77  36  22 S21G35    29.53S
$$

WIZ003>005-009-010-017-018-012300-
NORTH CENTRAL WISCONSIN

CITY           SKY/WX    TMP DP  RH WIND       PRES   REMARKS
MANITOWISH WTR LGT RAIN  55  36  49 S9        29.67F
ARBOR VITAE    CLOUDY    57  35  43 S14       29.68F
WOODRUFF       CLOUDY    57  35  43 S14       29.68F
RHINELANDER    CLOUDY    58  35  42 SE8       29.71F
EAGLE RIVER    LGT RAIN  55  32  42 S6        29.72S
LAND O LAKES   LGT RAIN  54  34  46 S12       29.72S
PHILLIPS       CLOUDY    59  39  46 SE8       29.65F
TOMAHAWK       CLOUDY    59  35  40 CALM      29.70F
MEDFORD        CLOUDY    65  40  40 SE10      29.66F
MERRILL        CLOUDY    64  37  36 S7        29.69F
$$

WIZ029-030-035-036-043>047-012300-
CENTRAL WISCONSIN

CITY           SKY/WX    TMP DP  RH WIND       PRES   REMARKS
WAUSAU         CLOUDY    67  35  30 S21G26    29.67F
MOSINEE        MOSUNNY   66  36  32 S14G21    29.71F
MARSHFIELD     PTSUNNY   75  35  23 S21G31    29.66F
STEVENS POINT  PTSUNNY   70  37  29 S14G22    29.70F
WAUPACA        MOSUNNY   75  33  21 S16       29.73F
WAUTOMA        MOSUNNY   76  35  22 S13G30    29.73F
WISC RAPIDS    PTSUNNY   75  31  19 S14G28    29.70F
CAMP DOUGLAS   PTSUNNY   77  34  20 S23G31    29.68F
$$

WIZ011>013-019>022-031-037>040-048>050-012300-
NORTHEAST WISCONSIN

CITY           SKY/WX    TMP DP  RH WIND       PRES   REMARKS
ANTIGO         CLOUDY    55  39  53 SE13      29.73F
SHAWANO        MOSUNNY   61  39  44 SE10      29.76F
OCONTO         SUNNY     50  34  53 S10       29.79F
STURGEON BAY   MOSUNNY   45  36  70 S17G31    29.83F
GREEN BAY      SUNNY     57  41  55 SE17      29.79F
MANITOWOC      MOSUNNY   47  37  68 S18G29    29.85F
APPLETON       PTSUNNY   61  36  39 SE17G23   29.79F
CLINTONVILLE   MOSUNNY   61  36  39 SE13G22   29.76F
OSHKOSH        MOSUNNY   65  41  41 SE17      29.78F
$$

WIZ032>034-041-042-053>061-012300-
SOUTHWEST WISCONSIN

CITY           SKY/WX    TMP DP  RH WIND       PRES   REMARKS
LA CROSSE      SUNNY     80  33  18 S20G32    29.63F
SPARTA         SUNNY     78  29  16 S13G26    29.67F
VIROQUA        SUNNY     75  32  21 S23G35    29.70F
BOSCOBEL         N/A     81  32  17 S13G21    29.71F
PRAIRIE DU CHI SUNNY     78  27  15 S22G35    29.70F
PLATTEVILLE    SUNNY     76  35  21 S32G38    29.75F
$$

WIZ056-057-062-063-064-067-068-012300-
SOUTH CENTRAL WISCONSIN

CITY           SKY/WX    TMP DP  RH WIND       PRES   REMARKS
REEDSBURG      SUNNY     76  38  25 S15G23    29.72F
BARABOO/DELLS  SUNNY     75  32  20 S17G26    29.73F
LONE ROCK      SUNNY     79  33  19 S18G37    29.72F
MINERAL POINT  SUNNY     77  28  16 S23G35    29.75S
MADISON        MOSUNNY   75  35  23 S20G30    29.76F
MIDDLETON      SUNNY     78  26  15 S21G28    29.76F
WATERTOWN      SUNNY     73  37  26 S22G31    29.79F
MONROE         SUNNY     73  36  25 S29G38    29.78F
JANESVILLE     SUNNY     77  30  18 S22G28    29.81F
$$

WIZ051-052-058>065-066-070>072-012300-
SOUTHEAST WISCONSIN

CITY           SKY/WX    TMP DP  RH WIND       PRES   REMARKS
MILWAUKEE      PTSUNNY   60  37  42 SE15      29.86F
WAUKESHA       MOSUNNY   66  39  37 SE16G22   29.84F
MILWAUKEE/TIMM SUNNY     63  34  34 SE14G20   29.85F
RACINE         MOSUNNY   53  35  50 S14G24    29.89F
BURLINGTON     SUNNY     72  36  26 S16G30    29.83F
KENOSHA        MOSUNNY   63  39  41 SE16      29.87F
FOND DU LAC    MOSUNNY   66  40  38 SE14G24   29.79F
SHEBOYGAN      PTSUNNY   51  37  58 S18G25    29.85F
WEST BEND      PTSUNNY   59  34  38 SE10G20   29.83F
JUNEAU         SUNNY     72  38  29 S18G30    29.81S
$$

LSZ147-162-012300-
LAKE SUPERIOR

STATION/POSITION TIME  TEMP    WIND        PRES    WAVE
                       AIR SEA DIR/SP/G            HT/PER
                 (UTC) (F)     (DEG/KT/KT) (MB)    (FT/S)
DEVILS ISLAND    2200   37      50/ 11/ 12 1001.1F
PORT WING        2100   34      50/ 13/ 20 1001.7
SAXON HARBOR     2122   63     180/  9/ 16 1000.3F
$$

LMZ867-665-643>646-012300-
LAKE MICHIGAN

STATION/POSITION TIME  TEMP    WIND        PRES    WAVE
                       AIR SEA DIR/SP/G            HT/PER
                 (UTC) (F)     (DEG/KT/KT) (MB)    (FT/S)
NORTHPORT PIER   2104   35     140/ 13/ 19 1011.5F
KEWAUNEE LAKESHO 2100   38     170/ 14/ 16 1010.9F
SHEBOYGAN LAKESH 2200   38     190/ 11/ 12 1012.0F
PORT WASHINGTON  2100   43     180/  7/ 16 1012.9
MILWAUKEE LAKESH 2200   42     150/ 17/ 18   N/A
KENOSHA   LAKESH 2200   46     180/ 14/ 17 1011.5F
$$

TC  - TEMPERATURE IN CELSIUS
VSB - VISIBILITY IN STATUTE MILES
WCI - WIND CHILL INDEX
HX  - HEAT INDEX



USA.gov is the U.S. government's official web portal to all federal, state and local government web resources and services.